logo dgac
Miércoles 05 de Octubre del 2022
Buscar por aerodromo o helipuerto
Ingrese nombre de aeródromo, localidad o designador OACI:

Aeródromo: Nuevo Chaitén (PUB) (SCTN)

Ubicación: Chaitén, X Región, Chile (42º 46' 55'' S, 72º 50' 06'' W) Ver ubicación en el mapa

Pistas

Orientación Dimensión Pendiente Superficie Resistencia APCH THR RWY PAPI
01 - 19 1200 x 30 0,20 Asfalto 20 F/A/W/T No Sí (3º)
Horas de operación HJ
Elevación 8,2 m (26,95 ft) ft
Otra Información Adm : DGAC
Uso : PUB
Ubicado: 18,6 Km NW de Chaitén
Fono : 652486393 CEL +56 9 40418511
email : aro.nuevochaiten@dgac.gob.cl

Otra información ver AIP-Chile Volumen I AD 3.9-3.6-C
CCCM/FCCV Descargar
andera de Chile
Mapa de Nuevo Chaitén (PUB) (SCTN)

Último METAR

METAR SCTN 050100Z AUTO 06003KT 9999 FEW025 09/09 Q1017

Último TAF

TAF SCTN 041021Z 0412/0500 36011KT 5000 RA BKN012 OVC030 TN11/0412Z TX13/0418Z BECMG 0417/0419 7000 -SHRA BKN035

Últimas fotos cámaras

Imagen aerodromo Nuevo Chaitén (PUB) (SCTN) Norte tomada el 05-10-2022 01:24:33 Imagen aerodromo Nuevo Chaitén (PUB) (SCTN) Sur tomada el 16-09-2022 08:00:53

Último NOTAM

C4319/22 NOTAMN Q)SCTZ/QMRHX/IV/NBO/A/000/999/4247S07250W005 A)SCTN B)2209281327 C)2212282359 E)RWY 01/19 CTN, DEBIDO A CONCENTRACION DE AVES DE MEDIANO TAMANNO